Aeroporto :
LOGIN :

Iscrizione | Disclaimer

   EN    FR    IT 

 










Sommario :    VFR   VFR Marginale   IFR   IFR Intensivo   IFR Molto Intensivo
Visibilità : 
Base nubi : 
>= 8 km
>= 3000ft
5 / 8 km
1000 / 3000 ft
1500m / 5 km
500 / 1000 ft
800 / 1500m
200 / 500 ft
< 800m
< 200 ft
Simboli :   Temporali  Nebbia  Neve Forte  Precipitazioni Forti  Vento > 20 kt
SIGMETs :   Varie  Temporali  Ghiacco  Turbolenza  Onda orograficha  Ceneri Vulcaniche






- Altitudine del aeroporto : 386 ft
- Codice IATA : QOE


ETNN - Nörvenich Airforce Base

ULTIMO METAR :
  • 181030Z 08006KT 9999 FEW060 SCT110 28/17 Q1013 BLU+FCST CANCEL

METARs OBSOLETI :
  • 181020Z 09005KT 9999 FEW060 BKN100 BKN320 29/16 Q1013 BLU BLU
  • 180920Z 09003KT 9999 FEW060 BKN100 27/19 Q1013 BLU BLU
  • 180820Z 03002KT 9999 FEW060 BKN100 26/18 Q1013 BLU BLU

TAF TAF ETNN
Valido dal 18 a 08 ore il 18 a 17 ore UTC


180720Z 1808/1817 12005KT 9999 NSW SCT070 BKN100 BKN320
PROB30 1813/1817 18015G35KT 3000 TSRAGR SCT030 BKN050CB BY ETGL



MetMap, La meteo Aeronautica in un colpo d'occhio ! - Copyright ORBIFLY Dicembre 2007 - Disclaimer

ORBIFLY MET'MAP TEAM :

Programmazione e sviluppo : Alexandra Zaïnal
Concezione : Baudouin d'Aumeries
Aiuto per la programmazione : Marc-Olivier Méhu
Supporto tecnico e logistico : Manuel Goepfert
Aiuto per la traduzione : Arnaldo La Scala

Contatto : metmap@orbifly.com




FONTI E CREDITI :

   NOAA